User: anonymous   Login
Location: Crocus Hill
(18.2167°N, 63.0667°W)
Time: 16:02:50
(UTC+00:00)
Language:

ADEOS Rocket - Orbit

View from above orbital plane
View from above orbital plane
View from above satellite
View from above satellite

Ground track
Ground track

The orbit data is extracted from the following two-line orbital elements,

1 24279U 96046C   20099.80740777 -.00000021 +00000-0 +18036-4 0  9995
2 24279 098.6934 290.4553 0299851 190.9996 180.3180 13.47139073162198
Epoch (UTC): 08 April 2020 19:22:40
Eccentricity: 0.0299851
inclination: 98.6934°
perigee height: 859 km
apogee height: 1306 km
right ascension of ascending node: 290.4553°
argument of perigee: 190.9996°
revolutions per day: 13.47139073
mean anomaly at epoch: 180.3180°
orbit number at epoch: 16219

The dashed part of the orbit path shows where the satellite is in the earth's shadow,  

DLR